www.pogodaiklimat.ru

ПОГОДА в Альве, OK

  • Прогноз погоды в Альве
  • Монитор погоды в Альве
  • Климат в Альве

АРХИВ ПОГОДЫ в Альве

Время (UTC), дата Ветер
(напр.,м/с)
 
Видим.   Явления Облачность Т
(С)
Тd
(С)
f
(%)
Тe
(С)
Тes
(С)
Комфортность

P
(гПа)

Po
(гПа)
Тmin
(С)
Tmax
(С)
R
(мм)
SD
(см)
17:35 25.05 ЮЗ  16 км    10/10 660 м  +25.0  +22.0  83  +32  +32  очень
душно 
  962.5         
17:55 25.05 ЮЗ  16 км    10/10 630 м  +25.0  +22.0  83  +32  +32  очень
душно 
  962.2         
18:15 25.05 ЮЗ  16 км    10/10 630 м  +25.0  +22.0  83  +32  +32  очень
душно 
  962.2         
18:35 25.05 ЮВ  16 км    10/10 600 м  +25.0  +22.0  83  +32  +32  очень
душно 
  961.9         
18:55 25.05 Ю  16 км    10/10 660 м  +25.0  +22.0  83  +32  +32  очень
душно 
  961.6         
19:15 25.05 Ю  16 км    10/10 750 м  +25.0  +22.0  83  +32  +32  очень
душно 
  961.2         
19:35 25.05 Ю  16 км    10/10 780 м  +25.0  +23.0  89  +33  +33  очень
душно 
  961.6         
19:55 25.05 Ю  16 км    10/10 840 м  +25.0  +23.0  89  +33  +33  очень
душно 
  961.2         
20:15 25.05 Ю  16 км    8/8 810 м  +26.0  +22.0  79  +34  +36  очень
душно 
  960.6         
20:35 25.05 Ю  16 км  гроза  8/5 720 м
[средняя] 
+26.0  +23.0  84  +35  +38  очень
душно 
  960.3         
20:55 25.05 Ю  16 км    8/8 750 м  +25.0  +23.0  89  +33  +35  очень
душно 
  960.0         
21:15 25.05 Ю  16 км    8/8 840 м  +25.0  +23.0  89  +33  +34  очень
душно 
  960.0         
21:35 25.05 Ю  16 км  гроза  8/5 1050 м
[средняя] 
+24.0  +23.0  94  +32  +33  очень
душно 
  959.3         
21:55 25.05 Ю  16 км    8/5 1380 м
[средняя] 
+24.0  +23.0  94  +32  +34  очень
душно 
           
22:15 25.05 ЮВ  16 км  гроза  10/5 1800 м
[средняя] 
+24.0  +23.0  94  +32  +32  очень
душно 
           
22:35 25.05 Ю  13 км  гроза  10/8 1500 м
[средняя] 
+24.0  +23.0  94  +32  +32  очень
душно 
           
22:55 25.05 ЮЗ  11 км  гроза, морось  10/10 1080 м  +23.0  +23.0  100  +32  +32  очень
душно 
  960.9         
23:15 25.05 З  4
{12} 
800 м  гроза с сильным дождем  10/10 120 м  +19.0  +19.0  100  +21  +21  комфорт    963.2         
23:35 25.05   0
{9} 
3 км  гроза со слабым дождем  10/10 120 м  +19.0  +19.0  100  +21  +21  комфорт    962.5         
23:55 25.05 СВ  6 км  гроза, дождь  8/8 120 м  +19.0  +19.0  100  +21  +21  комфорт             
00:15 26.05   6 км  гроза со слабым дождем  8/8 120 м  +19.0  +19.0  100  +21  +21  комфорт             
00:35 26.05 ЮВ  8 км  гроза со слабым дождем  10/8 120 м
[средняя] 
+19.0  +19.0  100  +20  +20               
00:55 26.05 ЮВ  7
{11} 
13 км    8/5 240 м
[средняя] 
+18.0  +18.0  100  +17  +17               
01:15 26.05 ЮВ  16 км    8/5 1800 м
[средняя] 
+18.0  +18.0  100  +17  +17      959.6         
01:35 26.05 ЮВ  16 км  гроза  2/2 1800 м
[средняя] 
+19.0  +19.0  100  +21  +21  комфорт    960.3         
01:55 26.05 нст  3
{6} 
16 км    2/0 2550 м
[средняя] 
+19.0  +19.0  100  +21  +21  комфорт    961.2         
02:15 26.05 нст  3
{5} 
16 км    8/2 1950 м
[средняя] 
+19.0  +19.0  100  +21  +21  комфорт    961.6         
02:35 26.05   16 км  гроза  2/2 1950 м
[средняя] 
+19.0  +19.0  100  +21  +21  комфорт    961.6         
02:55 26.05   16 км    5/0 2400 м
[средняя] 
+18.0  +18.0  100  +18  +18      961.6         
03:15 26.05 С  16 км    2/0 2250 м
[средняя] 
+18.0  +18.0  100  +18  +18      961.2         
03:35 26.05 СВ  16 км    ясно  +18.0  +18.0  100  +19  +19      962.2         
03:55 26.05 В  16 км    ясно  +18.0  +18.0  100  +18  +18      961.9         
04:15 26.05 В  16 км    ясно  +18.0  +18.0  100  +18  +18      961.6         
04:35 26.05 В  16 км    5/5 1950 м  +18.0  +18.0  100  +18  +18      961.2         
04:55 26.05   16 км    10/8 1650 м
[средняя] 
+18.0  +18.0  100  +18  +18      960.9         
05:15 26.05   16 км    10/10 1500 м  +19.0  +19.0  100  +21  +21  комфорт    961.6         
05:35 26.05 С  16 км    10/10 1350 м  +19.0  +19.0  100  +21  +21  комфорт    961.6         
05:55 26.05   16 км    10/10 1320 м  +19.0  +19.0  100  +21  +21  комфорт    962.2         
06:15 26.05   16 км    10/10 1230 м  +19.0  +19.0  100  +21  +21  комфорт    962.2         
06:35 26.05 Ю  16 км    10/10 1200 м  +19.0  +19.0  100  +21  +21  комфорт    962.8         
06:55 26.05 Ю  14 км  гроза  10/10 420 м  +19.0  +19.0  100  +20  +20               
07:15 26.05 Ю  12
{17} 
4 км  гроза  10/10 120 м  +19.0  +19.0  100  +19  +19               
07:35 26.05 Ю  8
{11} 
16 км  гроза  8/8 120 м  +19.0  +19.0  100  +20  +20               
07:55 26.05 Ю  7
{10} 
16 км    10/10 1050 м  +19.0  +19.0  100  +20  +20      961.9         
08:15 26.05 Ю  7
{10} 
16 км    10/10 990 м  +19.0  +19.0  100  +20  +20      961.9         
08:35 26.05 Ю  16 км  гроза  10/10 960 м  +19.0  +19.0  100  +20  +20               
08:55 26.05 Ю  16 км    10/10 1020 м  +19.0  +19.0  100  +20  +20               
09:15 26.05 нст  16 км  гроза  10/10 900 м  +19.0  +19.0  100  +21  +21  комфорт             

 

Местоположение метеостанции Alva Regional Airport: широта 36.7731 долгота -98.6700 высота над уровнем моря 449 м.

В архиве по умолчанию представлена погода в Альве за последние 1-2 суток. Обновление информации о фактической погоде в базе происходит ежечасно! Архивные данные за месяц целиком и за предыдущие месяцы Вы можете получить, выбрав интересующий диапазон дат из раскрывающегося списка и нажав кнопку "Ввод!".

Внимание! Архив погоды МЕТАР в базе сайта хранится не более 60 дней. Нет смысла пытаться выбрать более раннюю дату.

Внимание! Время в таблицах - всемирное. Для получения местного времени необходимо прибавить поправку, которая в Альве равна -6 ч.

Ветер - указаны скорость ветра в м/с и направление, откуда дует ветер: С - северный, СВ - северо-восточный, В - восточный, ЮВ - юго-восточный, Ю - южный, ЮЗ - юго-западный, З - западный, СЗ - северо-западный.
Видимость - горизонтальная дальность видимости в метрах или километрах. При видимости от 1 до 10 км при отсутствии осадков обычно наблюдается дымка, при ухудшении видимости до 1 км и менее - туман. В сухую погоду видимость может ухудшаться дымом, пылью или мглою.
Атмосферные явления - указаны явления, наблюдавшиеся в указанный момент времени.
Облачность - указаны через наклонную черту верхняя и нижняя облачность в баллах и высота нижней границы облаков в метрах. Внимание: облачность, как и прочие метеорологические величины в США измеряются автоматическими метеостанциями. Указанные значения в баллах носят условный характер и показывают процент времени, в течение которого, в среднем, лазерный луч высотомера отражался от облаков обратно.
T - Температура воздуха - температура, измеренная на высоте 2 м над землей.
Td - Температура точки росы - температура, при понижении до которой содержащийся в воздухе водяной пар достигнет насыщения.
f - Относительная влажность воздуха - влажноcть воздуха, измеренная на высоте 2 м над землей.
Te - Эффективная температура - температура, которую ощущает одетый по сезону человек в тени. Характеристика душности погоды. При расчете учитывается влияние влажности воздуха и скорости ветра на теплоощущения человека.
Tes - Эффективная температура на солнце - температура, которую ощущает человек, с поправкой на солнечный нагрев. Характеристика знойности погоды. Зависит от высоты солнца над горизонтом, облачности и скорости ветра. Ночью, в пасмурную погоду, а также при ветре 12 м/с и более поправка равна нулю.
P - Атмосферное давление - приведенное к уровню моря атмосферное давление.
Po - Атмосферное давление - измеренное на уровне метеостанции атмосферное давление.
Tmin - Минимальная температура - минимум температуры воздуха на высоте 2 м над землей.
Tmax - Максимальная температура - максимум температуры воздуха на высоте 2 м над землей.
R - Количество осадков - Количество выпавших осадков за 3 или 6 часов, мм.
SD - Снежный покров - Высота снежного покрова, см.